Tracking 19903 objects as of 17-Oct-2019
HD Live streaming from Space Station
objects crossing your sky now

IRIDIUM 33 DEB

Track IRIDIUM 33 DEB now!
10-day predictions


NORAD ID: 34532
Int'l Code: 1997-051HZ
Perigee: 657.1 km
Apogee: 710.4 km
Inclination: 86.3 °
Period: 98.3 minutes
Semi major axis: 7054 km
RCS: 0.027 m2 (small)
Launch date: September 14, 1997
Source: United States (US)
Launch site: TYURATAM MISSILE AND SPACE COMPLEX (TTMTR)

Note: This is SATELLITE DEBRIS
aabbcc
Your satellite tracking list
Your tracking list is empty




NASA's NSSDC Master Catalog

Two Line Element Set (TLE):
1 34532U 97051HZ  19288.89590548 +.00004381 +00000-0 +80247-3 0  9995
2 34532 086.3383 259.2504 0037790 206.9998 152.9250 14.65152012558791
Source of the keplerian elements: AFSPC